CAPE
8 9 6 1 1 nan 1 1 nan nan nan 1 2 2 5 14 15 15 14 16 16 34 51 52 52 14 nan nan nan nan 1 5 6 6 6 3 1 1 nan nan nan nan nan nan nan nan nan nan nan nan nan nan nan nan nan nan nan nan nan nan nan 2 0 nan nan nan nan nan 13 13 126 445 733 733 736 565 461 461 465 599 599 485 343 238 238 209
4 11 11 5 5 1 2 5 3 3 4 6 8 8 11 12 18 18 18 21 21 56 63 58 58 34 0 nan nan nan 0 3 2 2 2 3 2 2 nan nan nan nan nan nan nan nan nan nan nan nan nan nan nan nan nan nan nan nan nan nan nan nan nan nan nan nan nan nan 5 5 55 313 637 637 715 631 493 493 461 502 502 420 317 225 225 195
2 4 5 6 6 4 6 7 7 7 7 15 20 20 19 18 23 23 26 36 36 76 63 45 45 35 13 nan 0 0 0 8 2 2 0 0 nan nan nan nan nan nan nan nan nan nan nan nan nan nan nan nan nan nan nan nan nan nan nan nan nan nan nan nan nan nan nan nan nan nan 12 147 519 519 689 653 538 538 422 361 361 286 223 209 209 200
1 3 4 6 6 6 5 9 11 11 13 18 24 24 26 29 30 30 42 72 72 105 47 18 18 29 24 4 nan nan 0 4 8 8 nan nan nan nan nan nan nan nan nan nan nan nan nan nan nan nan nan nan nan nan nan nan nan nan nan nan nan nan nan nan nan nan nan nan nan nan nan 14 154 154 366 433 362 362 316 281 281 255 194 186 186 159
nan 3 5 10 10 8 2 1 12 12 23 20 24 24 36 38 44 44 60 102 102 121 60 18 18 25 27 18 1 1 nan 3 7 7 0 nan nan nan nan 1 1 1 0 nan nan nan nan nan nan nan nan nan nan nan nan nan nan nan nan nan nan nan nan nan nan nan nan nan nan nan nan nan nan nan 39 114 174 174 242 302 302 288 240 167 167 150
1 3 10 19 19 20 12 4 12 12 17 14 21 21 42 49 57 57 64 92 92 123 76 20 20 14 20 27 11 11 1 3 7 7 1 nan nan nan 0 1 1 1 0 nan nan nan nan nan nan nan nan nan nan nan nan nan nan nan nan nan nan nan nan nan nan nan nan nan nan nan nan nan nan nan nan nan 20 20 121 246 246 293 196 132 132 167
4 8 25 40 40 40 24 7 16 16 22 16 25 25 43 52 56 56 63 82 82 135 96 20 20 13 13 9 10 10 5 0 0 0 nan nan nan nan nan 1 1 1 0 nan nan nan nan nan nan nan nan nan nan nan nan nan nan nan nan nan nan nan nan nan nan nan nan nan nan nan nan nan nan nan nan nan nan nan nan 63 63 153 133 125 125 148
20 14 9 16 16 17 22 22 23 23 35 31 32 32 18 8 11 11 42 97 97 153 127 39 39 18 7 nan nan nan nan 12 2 2 nan nan nan nan nan nan nan 0 1 1 1 0 nan nan nan nan nan nan nan nan nan nan nan nan nan nan nan nan nan nan nan nan nan nan nan nan nan nan nan nan nan nan nan nan nan nan nan 0 13 51 51 107
12 13 9 3 3 10 16 13 15 15 31 44 37 37 22 3 0 0 12 54 54 105 104 38 38 11 4 nan nan nan nan 4 9 9 2 0 0 0 0 nan nan 0 1 1 1 1 nan nan nan nan nan nan nan nan nan nan nan nan nan nan nan nan nan nan nan nan nan nan nan nan nan nan nan nan nan nan nan nan nan nan nan nan nan 16 16 55
4 2 1 nan nan 0 6 6 20 20 24 50 44 44 45 20 2 2 1 13 13 45 71 40 40 12 4 nan nan nan nan nan 3 3 0 nan nan nan nan nan nan 1 0 0 0 0 0 nan nan nan nan nan nan nan nan nan nan nan nan nan nan nan nan nan nan nan nan nan nan nan nan nan nan nan nan nan nan nan nan nan nan nan nan nan nan 34
34 1 nan nan nan nan 14 30 55 55 15 33 35 35 57 37 8 8 3 7 7 15 29 26 26 14 6 nan nan nan nan 0 2 2 1 nan nan nan nan nan nan nan nan nan nan nan nan nan nan nan nan nan nan nan nan nan nan nan nan nan nan nan nan nan nan nan nan nan nan nan nan nan nan nan nan nan nan nan nan nan nan nan nan nan nan 0
28 33 75 79 79 87 70 58 21 21 7 24 23 23 24 29 26 26 10 10 10 12 12 17 17 15 3 nan nan nan nan 1 1 1 1 0 0 0 1 1 1 0 0 nan nan nan nan nan nan nan nan nan nan nan nan nan nan nan nan nan nan nan nan nan nan nan nan nan nan nan nan nan nan nan nan nan nan nan nan nan nan nan nan nan nan nan
4 5 7 14 14 11 7 4 4 4 12 13 35 35 47 45 101 101 57 21 21 15 11 7 7 2 0 nan nan nan nan nan 1 1 nan 0 1 1 3 3 3 3 2 1 1 1 nan nan nan nan nan nan nan nan nan nan nan nan nan nan nan nan nan nan nan nan nan nan nan nan nan nan nan nan nan nan nan nan nan nan nan nan nan nan nan nan
1 1 2 3 3 3 2 2 2 2 3 7 9 9 8 9 21 21 69 52 52 30 14 7 7 1 nan nan nan nan nan nan nan nan nan nan nan nan 2 2 2 2 2 3 3 1 nan nan nan nan nan nan nan nan nan nan nan nan nan nan nan nan nan nan nan nan nan nan nan nan nan nan nan nan nan nan nan nan nan nan nan nan nan nan nan nan
2 2 2 2 2 2 2 3 3 3 3 4 4 4 4 5 6 6 29 72 72 47 27 11 11 3 nan nan nan nan 2 2 0 0 nan nan nan nan nan 2 2 1 2 3 3 2 nan nan nan nan nan nan nan nan nan nan nan nan nan nan nan nan nan nan nan nan nan nan nan nan nan nan nan nan nan nan nan nan nan nan nan nan nan nan nan nan
2 2 1 1 1 1 4 5 5 5 5 4 6 6 4 4 5 5 8 63 63 76 30 11 11 4 nan nan nan nan 0 2 nan nan nan nan nan nan nan 2 2 1 2 3 3 2 0 nan nan nan nan nan nan nan nan nan nan nan nan nan nan nan nan nan nan nan nan nan nan nan nan nan nan nan nan nan nan nan nan nan nan nan nan nan nan nan
2 1 1 1 1 1 4 4 4 4 4 4 4 4 5 3 4 4 5 10 10 70 36 15 15 5 1 nan nan nan nan nan nan nan nan nan nan nan nan nan nan 2 1 3 3 2 1 0 0 0 nan nan nan nan nan nan nan nan nan nan nan nan nan nan nan nan nan nan nan nan nan nan nan nan nan nan nan nan nan nan nan nan nan nan nan nan
3 1 2 2 2 1 2 4 4 4 5 4 4 4 4 5 4 4 4 7 7 38 40 24 24 12 4 5 nan nan nan nan nan nan nan nan nan nan nan nan nan 1 2 3 3 1 0 0 0 0 nan nan nan nan nan nan nan nan nan nan nan nan nan nan nan nan nan nan nan nan nan nan nan nan nan nan nan nan nan nan nan nan nan nan nan nan
2 1 2 1 1 2 3 4 4 4 5 6 5 5 3 4 4 4 4 7 7 24 37 29 29 15 0 0 nan nan nan nan nan nan nan nan nan nan nan nan nan 1 2 2 2 1 0 0 0 nan nan nan nan nan nan nan nan nan nan nan nan nan nan nan nan nan nan nan nan nan nan nan nan nan nan nan nan nan nan nan nan nan nan nan nan nan
3 2 4 3 3 3 4 6 9 9 8 9 6 6 3 3 3 3 4 7 7 28 25 29 29 17 nan nan nan nan nan nan nan nan nan nan nan nan nan nan nan 1 1 nan nan nan 0 nan nan nan nan nan nan nan nan nan nan nan nan nan nan nan nan nan nan nan nan nan nan nan nan nan nan nan nan nan nan nan nan nan nan nan nan nan nan nan
3 3 3 4 4 4 4 7 11 11 17 11 5 5 4 3 3 3 4 9 9 13 29 37 37 24 0 nan nan nan nan nan nan nan nan nan nan nan nan nan nan 0 nan nan nan nan nan nan nan nan nan nan nan nan nan nan nan nan nan nan nan nan nan nan nan nan nan nan nan nan nan nan nan nan nan nan nan nan nan nan nan nan nan nan nan nan
3 2 1 4 4 5 8 8 15 15 22 10 4 4 4 3 2 2 3 6 6 7 4 10 10 1 nan nan nan nan nan nan nan nan nan nan nan nan nan nan nan nan nan nan nan nan nan nan nan nan nan nan nan nan nan nan nan nan nan nan nan nan nan nan nan nan nan nan nan nan nan nan nan nan nan nan nan nan nan nan nan nan nan nan nan nan
3 3 2 4 4 7 9 7 13 13 23 9 6 6 5 2 1 1 2 4 4 5 4 4 4 3 nan nan nan nan nan nan nan nan nan nan nan nan nan nan nan nan nan nan nan nan nan nan nan nan nan nan nan nan nan nan nan nan nan nan nan nan nan nan nan nan nan nan nan nan nan nan nan nan nan nan nan nan nan nan nan nan nan 1 1 1
4 3 3 5 5 7 8 8 12 12 19 10 7 7 6 3 2 2 2 3 3 3 3 3 3 1 nan nan nan nan nan nan nan nan nan nan nan nan nan nan nan nan nan nan nan nan nan nan nan nan nan nan nan nan nan nan nan nan nan nan nan nan nan nan nan nan nan nan nan nan nan nan nan nan nan nan nan nan nan nan nan 1 3 3 3 3
3 4 6 8 8 17 11 7 15 15 16 8 5 5 5 5 6 6 4 4 4 2 2 4 4 1 nan nan nan nan nan nan nan nan nan nan nan nan nan nan nan nan nan nan nan nan nan nan nan nan nan nan nan nan nan nan nan nan nan nan nan nan nan nan nan nan nan nan nan nan nan nan nan nan nan nan nan nan nan 0 0 2 3 4 4 4
17 13 13 21 21 39 34 33 36 36 30 13 4 4 3 3 4 4 5 6 6 5 3 2 2 0 nan nan nan nan nan nan nan nan nan nan nan nan nan nan nan nan nan nan nan nan nan nan nan nan nan nan nan nan nan nan nan nan nan nan nan nan nan nan nan nan nan nan nan nan nan nan nan nan nan nan nan nan 0 2 2 2 4 3 3 3
36 37 42 43 43 37 30 26 33 33 43 35 9 9 2 1 1 1 3 3 3 3 3 3 3 7 nan nan nan nan nan nan nan nan nan nan nan nan nan nan nan nan nan nan nan nan nan nan nan nan nan nan nan nan nan nan nan nan nan nan nan nan nan nan nan nan nan nan nan nan nan nan nan nan 0 nan nan nan 1 2 2 2 1 0 0 1
31 30 27 28 28 26 22 22 27 27 37 41 35 35 6 nan nan nan nan nan nan 0 2 2 2 7 10 nan nan nan nan 0 0 0 nan nan nan nan nan nan nan nan nan nan nan nan nan nan nan nan nan nan nan nan nan nan nan nan nan nan nan nan nan nan nan nan nan nan nan nan nan 0 0 0 0 0 0 0 1 0 0 nan nan nan nan nan
18 21 21 21 21 21 19 18 22 22 30 36 34 34 10 nan nan nan nan 0 0 0 1 3 3 nan 14 nan nan nan nan nan nan nan 1 nan nan nan nan nan nan nan nan nan nan nan nan nan nan nan nan nan nan nan nan nan nan nan nan nan nan nan nan nan nan nan nan nan nan nan nan 0 nan nan nan 0 nan nan nan nan nan nan nan nan nan nan
1 7 7 12 12 14 10 3 14 14 25 31 28 28 15 nan nan nan nan 0 0 0 1 3 3 2 nan nan nan nan nan nan nan nan 0 nan nan nan nan nan nan nan nan nan nan nan nan nan nan nan nan nan nan nan nan nan nan nan nan nan nan nan nan nan nan nan nan nan nan nan nan nan nan nan nan nan nan nan nan nan nan nan nan nan nan nan
nan nan nan nan nan 0 nan nan 2 2 15 24 22 22 11 nan nan nan nan 0 0 0 1 2 2 3 1 nan nan nan nan nan nan nan nan nan nan nan nan nan nan nan nan nan nan nan nan nan nan nan nan nan nan nan nan nan nan nan nan nan nan nan 0 0 0 1 1 1 1 1 0 nan nan nan nan nan nan nan nan nan nan nan nan nan nan nan
nan nan nan nan nan nan nan nan nan nan nan nan nan nan 3 3 1 1 nan nan nan nan 0 0 0 1 2 3 nan nan nan nan 0 0 nan nan 0 0 nan nan nan nan nan nan nan nan nan nan nan nan nan nan nan nan nan nan nan nan nan nan nan nan 1 1 1 4 4 5 3 3 0 nan nan nan nan nan nan nan nan nan nan nan nan nan nan nan
nan nan nan nan nan nan nan nan nan nan nan nan nan nan nan nan 3 3 0 nan nan nan nan nan nan 0 1 0 nan nan nan nan 3 3 nan nan 7 7 nan nan nan nan nan nan nan nan nan nan nan nan nan nan nan nan nan nan nan nan nan nan nan nan 2 1 1 1 1 1 0 0 0 nan nan nan nan nan nan nan nan nan nan nan nan nan nan nan
nan nan nan nan nan nan nan nan nan nan nan nan 0 0 nan nan nan nan 0 nan nan nan nan nan nan nan 0 1 nan nan nan nan 2 2 nan nan 3 3 nan nan nan nan nan nan nan nan nan nan nan nan nan nan nan nan nan nan nan nan nan nan nan nan nan 0 0 0 0 nan nan nan nan nan nan nan nan nan nan nan nan nan nan nan nan nan nan nan
nan nan nan nan nan nan nan nan nan nan nan nan nan nan nan nan nan nan nan nan nan nan nan nan nan nan nan 0 0 0 nan nan 0 0 0 nan nan nan nan nan nan nan nan nan nan nan nan nan nan nan nan nan nan nan nan nan nan nan nan nan nan nan nan nan nan nan nan nan nan nan nan nan nan nan nan nan nan nan nan nan nan nan nan nan nan nan
nan nan nan nan nan nan nan nan nan nan nan nan nan nan nan nan nan nan nan nan nan nan 0 nan nan nan nan nan nan nan nan nan nan nan nan nan nan nan nan nan nan nan nan nan nan nan nan nan nan nan nan nan nan nan nan nan nan nan nan nan nan nan nan nan nan nan nan nan nan nan nan nan nan nan nan nan nan nan nan nan nan nan nan nan nan nan
nan nan nan nan nan nan nan nan nan nan nan nan nan nan nan nan nan nan nan nan nan nan nan 0 0 nan 0 nan nan nan nan nan nan nan nan nan nan nan nan nan nan nan nan nan nan nan nan nan nan nan nan nan nan nan nan nan nan nan nan nan nan nan nan nan nan nan nan nan nan nan nan nan nan nan nan nan nan nan nan nan nan nan nan nan nan nan
nan nan nan nan nan nan nan nan nan nan nan nan nan nan nan nan nan nan nan nan nan nan nan nan nan nan nan 0 nan nan nan nan nan nan nan nan nan nan nan nan nan nan nan nan nan nan nan nan nan nan nan nan nan nan nan nan nan nan nan nan nan nan nan nan nan nan nan nan nan nan nan nan nan nan nan nan nan nan nan nan nan nan nan nan nan nan
nan nan nan nan nan nan nan nan nan nan nan nan nan nan nan nan nan nan nan nan nan nan nan nan nan nan nan nan nan nan nan nan nan nan nan nan nan nan nan nan nan nan nan nan nan nan nan nan nan nan nan nan nan nan nan nan nan nan nan nan nan nan nan nan nan nan nan nan nan nan nan nan nan nan nan nan nan nan nan nan nan nan nan nan nan nan
nan nan nan 0 0 nan nan nan nan nan nan nan nan nan nan nan nan nan nan nan nan nan nan nan nan nan nan nan nan nan nan nan nan nan nan nan nan nan nan nan nan nan nan nan nan nan nan nan nan nan nan nan nan nan nan nan nan nan nan nan nan nan nan nan nan nan nan nan nan nan nan nan nan nan nan nan nan nan nan nan nan nan nan nan nan nan
nan nan nan nan nan nan nan nan nan nan nan nan nan nan nan nan nan nan nan nan nan nan nan nan nan nan nan nan nan nan nan nan nan nan nan nan nan nan nan nan nan nan nan nan nan nan nan nan nan nan nan nan nan nan nan nan nan 0 nan nan nan nan nan nan nan nan nan nan nan nan nan nan nan nan nan nan nan nan nan nan nan nan nan nan nan nan
1 nan nan nan nan nan nan nan nan nan nan nan nan nan nan nan nan nan nan nan nan nan nan nan nan nan nan nan nan nan nan nan nan nan nan nan nan nan nan nan nan nan nan nan nan nan nan nan nan nan nan nan nan nan nan nan nan nan nan nan nan nan nan nan nan nan nan nan nan nan nan nan nan nan nan nan nan nan nan nan nan nan nan nan nan nan
nan nan nan nan nan nan nan nan nan nan nan nan nan nan nan nan nan nan nan nan nan nan nan nan nan nan nan nan nan nan nan nan nan nan nan nan nan nan nan nan nan nan nan nan nan nan nan nan nan nan nan nan nan nan nan nan nan nan nan nan nan nan nan nan nan nan nan nan nan nan nan nan nan nan nan nan nan nan nan nan nan nan nan nan nan nan
nan nan nan nan nan nan nan nan nan nan nan nan nan nan nan nan nan nan nan nan nan nan nan nan nan nan nan nan nan nan nan nan nan nan nan nan nan nan nan nan nan nan nan nan nan nan nan nan nan nan nan nan nan nan nan nan nan nan nan nan nan nan nan nan nan nan nan nan nan nan nan nan nan nan nan nan nan nan nan nan nan nan nan nan nan nan
nan nan nan nan nan nan nan nan nan nan nan nan nan nan nan nan nan nan nan nan nan nan nan nan nan nan nan nan nan nan nan nan nan nan nan 1 1 1 nan nan nan nan nan nan nan nan nan nan nan nan nan nan nan nan nan nan nan nan nan nan nan nan nan nan nan nan nan nan nan nan nan nan nan nan nan nan nan nan nan nan nan nan nan nan nan nan
nan nan nan nan nan nan nan nan nan nan nan nan nan nan nan nan nan nan nan nan nan nan nan nan nan nan nan nan nan nan nan nan nan nan nan nan nan nan nan nan nan 0 nan nan nan nan nan nan nan nan nan nan nan nan nan nan nan nan nan nan nan nan nan nan nan nan nan nan nan nan nan nan nan nan nan nan nan nan nan nan nan nan nan nan nan nan
nan nan nan nan nan nan nan nan nan nan nan nan nan nan nan nan nan nan nan nan nan nan nan nan nan nan nan nan nan nan nan nan nan nan nan nan nan nan nan nan nan 0 nan nan nan nan nan nan nan nan nan nan nan nan nan nan nan nan nan nan nan nan nan nan nan nan nan nan nan nan nan nan nan nan nan nan nan nan nan nan nan nan nan nan nan nan
nan nan nan nan nan nan nan nan nan nan nan nan nan nan nan nan nan nan nan nan nan nan nan nan nan nan nan nan nan nan nan nan nan nan nan nan nan nan nan nan nan nan nan nan nan nan nan nan nan nan nan nan nan nan nan nan nan nan nan nan nan nan nan nan nan nan nan nan nan nan nan nan nan nan nan nan nan nan nan nan nan nan nan nan nan nan
nan nan nan nan nan nan nan nan nan nan nan nan nan nan nan 0 8 8 nan nan nan nan nan nan nan nan nan nan nan nan nan nan nan nan nan nan nan nan nan nan nan nan nan nan nan nan nan nan nan nan nan nan nan nan nan nan nan nan nan nan nan nan nan nan nan nan nan nan nan nan nan nan nan nan nan nan nan nan nan nan nan nan nan nan nan nan
nan nan nan nan nan nan nan nan nan nan nan nan nan nan nan nan nan nan nan nan nan nan nan nan nan nan nan nan nan nan nan nan nan nan nan nan nan nan nan nan nan nan nan nan nan nan nan nan nan nan 0 nan nan nan nan nan nan nan nan nan nan nan nan nan nan nan nan nan nan nan nan nan nan nan nan nan nan nan nan nan nan nan nan nan nan nan
nan nan nan nan nan nan nan nan nan nan nan nan nan nan nan nan nan nan nan nan nan nan nan nan nan nan nan nan nan nan nan nan nan nan nan nan nan nan nan nan nan nan nan nan nan nan nan nan nan nan 2 11 nan nan nan nan nan nan nan nan nan nan nan nan nan nan nan nan nan nan nan nan nan nan nan nan nan nan nan nan nan nan nan nan nan nan
CIN
-0 -0 -9 -33 -33 nan -45 -40 nan nan nan -2 -6 -6 -4 -2 -2 -2 -2 -1 -1 -0 -0 -0 -0 -2 nan nan nan nan -0 -0 -0 -0 -40 -67 -115 -115 nan nan nan nan nan nan nan nan nan nan nan nan nan nan nan nan nan nan nan nan nan nan nan -246 -247 nan nan nan nan nan -113 -113 -0 -1 -4 -4 -14 -13 -9 -9 -1 -14 -14 -31 -45 -54 -54 -58
-0 -0 -7 -23 -23 -39 -45 -46 -20 -20 -2 -1 -3 -3 -3 -2 -2 -2 -2 -2 -2 -0 -0 -0 -0 -0 -4 nan nan nan -0 -0 -0 -0 -31 -61 -102 -102 nan nan nan nan nan nan nan nan nan nan nan nan nan nan nan nan nan nan nan nan nan nan nan nan nan nan nan nan nan nan -155 -155 -0 -0 -2 -2 -7 -6 -0 -0 -0 -11 -11 -31 -46 -55 -55 -57
-0 -0 -3 -15 -15 -16 -35 -47 -25 -25 -8 -1 -1 -1 -2 -2 -1 -1 -1 -1 -1 -0 -0 -0 -0 -0 -1 nan -0 -0 -81 -52 -20 -20 -34 -62 nan nan nan nan nan nan nan nan nan nan nan nan nan nan nan nan nan nan nan nan nan nan nan nan nan nan nan nan nan nan nan nan nan nan -88 -21 -3 -3 -3 -1 -0 -0 -0 -11 -11 -26 -45 -55 -55 -56
-1 -0 -0 -6 -6 -5 -20 -46 -32 -32 -12 -3 -1 -1 -1 -1 -1 -1 -0 -1 -1 -0 -1 -2 -2 -1 -0 -1 nan nan -73 -55 -24 -24 nan nan nan nan nan nan nan nan nan nan nan nan nan nan nan nan nan nan nan nan nan nan nan nan nan nan nan nan nan nan nan nan nan nan nan nan nan -84 -16 -16 -15 -13 -15 -15 -15 -18 -18 -21 -29 -43 -43 -38
nan -0 -0 -0 -0 -3 -22 -61 -42 -42 -12 -4 -1 -1 -1 -1 -1 -1 -0 -0 -0 -0 -1 -3 -3 -2 -1 -0 -2 -2 nan -26 -29 -29 -39 nan nan nan nan -3 -3 -3 -5 nan nan nan nan nan nan nan nan nan nan nan nan nan nan nan nan nan nan nan nan nan nan nan nan nan nan nan nan nan nan nan -58 -40 -34 -34 -25 -22 -22 -24 -27 -29 -29 -20
-0 -0 -0 -0 -0 -0 -14 -53 -44 -44 -18 -5 -1 -1 -1 -2 -1 -1 -0 -0 -0 -0 -1 -2 -2 -4 -3 -1 -1 -1 -1 -36 -26 -26 -36 nan nan nan -2 -2 -2 -3 -4 nan nan nan nan nan nan nan nan nan nan nan nan nan nan nan nan nan nan nan nan nan nan nan nan nan nan nan nan nan nan nan nan nan -55 -55 -35 -26 -26 -23 -21 -15 -15 -14
-0 -0 -0 -0 -0 -0 -13 -33 -34 -34 -14 -3 -2 -2 -2 -3 -1 -1 -0 -0 -0 -0 -1 -3 -3 -5 -7 -9 -3 -3 -2 -52 -58 -58 nan nan nan nan nan -2 -2 -3 -4 nan nan nan nan nan nan nan nan nan nan nan nan nan nan nan nan nan nan nan nan nan nan nan nan nan nan nan nan nan nan nan nan nan nan nan nan -34 -34 -24 -25 -15 -15 -8
-0 -6 -8 -1 -1 -7 -11 -18 -24 -24 -12 -2 -1 -1 -4 -10 -10 -10 -2 -0 -0 -0 -0 -3 -3 -4 -15 nan nan nan nan -1 -2 -2 nan nan nan nan nan nan nan -4 -4 -5 -5 -5 nan nan nan nan nan nan nan nan nan nan nan nan nan nan nan nan nan nan nan nan nan nan nan nan nan nan nan nan nan nan nan nan nan nan nan -116 -0 -0 -0 -0
-0 -0 -2 -5 -5 -3 -1 -10 -29 -29 -20 -3 -1 -1 -2 -8 -15 -15 -7 -1 -1 -0 -2 -5 -5 -5 -15 nan nan nan nan -3 -2 -2 -3 -3 -3 -3 -3 nan nan -5 -4 -4 -4 -4 nan nan nan nan nan nan nan nan nan nan nan nan nan nan nan nan nan nan nan nan nan nan nan nan nan nan nan nan nan nan nan nan nan nan nan nan nan -46 -46 -0
-3 -3 -4 nan nan -8 -5 -6 -21 -21 -29 -8 -1 -1 -1 -3 -9 -9 -9 -3 -3 -3 -4 -7 -7 -8 -11 nan nan nan nan nan -5 -5 -7 nan nan nan nan nan nan -3 -4 -5 -5 -5 -6 nan nan nan nan nan nan nan nan nan nan nan nan nan nan nan nan nan nan nan nan nan nan nan nan nan nan nan nan nan nan nan nan nan nan nan nan nan nan -67
-0 -8 nan nan nan nan -10 -9 -15 -15 -29 -7 -1 -1 -1 -2 -6 -6 -5 -4 -4 -5 -6 -10 -10 -13 -11 nan nan nan nan -2 -2 -2 -7 nan nan nan nan nan nan nan nan nan nan nan nan nan nan nan nan nan nan nan nan nan nan nan nan nan nan nan nan nan nan nan nan nan nan nan nan nan nan nan nan nan nan nan nan nan nan nan nan nan nan -137
-0 -0 -0 -0 -0 -0 -0 -0 -2 -2 -2 -0 -2 -2 -1 -4 -5 -5 -3 -3 -3 -4 -6 -10 -10 -17 -22 nan nan nan nan -2 -2 -2 -6 -7 -3 -3 -3 -3 -3 -4 -5 nan nan nan nan nan nan nan nan nan nan nan nan nan nan nan nan nan nan nan nan nan nan nan nan nan nan nan nan nan nan nan nan nan nan nan nan nan nan nan nan nan nan nan
-0 -0 -0 -0 -0 -0 -0 -0 -0 -0 -0 -0 -0 -0 -0 -0 -0 -0 -2 -3 -3 -5 -7 -11 -11 -20 -27 nan nan nan nan nan -5 -5 nan -7 -3 -3 -1 -1 -1 -1 -2 -2 -2 -3 nan nan nan nan nan nan nan nan nan nan nan nan nan nan nan nan nan nan nan nan nan nan nan nan nan nan nan nan nan nan nan nan nan nan nan nan nan nan nan nan
-0 -0 -0 -0 -0 -0 -0 -0 -0 -0 -0 -0 -0 -0 -0 -0 -0 -0 -0 -2 -2 -7 -11 -9 -9 -16 nan nan nan nan nan nan nan nan nan nan nan nan -3 -2 -2 -3 -2 -1 -1 -2 nan nan nan nan nan nan nan nan nan nan nan nan nan nan nan nan nan nan nan nan nan nan nan nan nan nan nan nan nan nan nan nan nan nan nan nan nan nan nan nan
-0 -0 -0 -0 -0 -0 -0 -0 -0 -0 -0 -0 -0 -0 -0 -0 -0 -0 -0 -0 -0 -5 -8 -6 -6 -10 nan nan nan nan -27 -6 -6 -6 nan nan nan nan nan -2 -2 -4 -3 -2 -2 -3 nan nan nan nan nan nan nan nan nan nan nan nan nan nan nan nan nan nan nan nan nan nan nan nan nan nan nan nan nan nan nan nan nan nan nan nan nan nan nan nan
-0 -0 -0 -0 -0 -0 -0 -0 -0 -0 -0 -0 -0 -0 -0 -0 -0 -0 -0 -0 -0 -2 -5 -4 -4 -5 nan nan nan nan -28 -6 nan nan nan nan nan nan nan -2 -2 -2 -3 -3 -3 -4 -6 nan nan nan nan nan nan nan nan nan nan nan nan nan nan nan nan nan nan nan nan nan nan nan nan nan nan nan nan nan nan nan nan nan nan nan nan nan nan nan
-0 -0 -0 -0 -0 -0 -0 -0 -0 -0 -0 -0 -0 -0 -0 -0 -0 -0 -0 -0 -0 -0 -3 -4 -4 -4 -10 nan nan nan nan nan nan nan nan nan nan nan nan nan nan -2 -3 -4 -4 -6 -5 -5 -5 -4 nan nan nan nan nan nan nan nan nan nan nan nan nan nan nan nan nan nan nan nan nan nan nan nan nan nan nan nan nan nan nan nan nan nan nan nan
-0 -0 -0 -0 -0 -0 -0 -0 -0 -0 -0 -0 -0 -0 -0 -0 -0 -0 -0 -0 -0 -0 -3 -5 -5 -8 -8 -12 nan nan nan nan nan nan nan nan nan nan nan nan nan -3 -3 -4 -4 -8 -8 -6 -6 -6 nan nan nan nan nan nan nan nan nan nan nan nan nan nan nan nan nan nan nan nan nan nan nan nan nan nan nan nan nan nan nan nan nan nan nan nan
-0 -0 -0 -0 -0 -0 -0 -0 -0 -0 -0 -0 -0 -0 -0 -0 -0 -0 -0 -0 -0 -0 -4 -7 -7 -10 -18 -21 nan nan nan nan nan nan nan nan nan nan nan nan nan -3 -4 -6 -6 -10 -10 -11 -11 nan nan nan nan nan nan nan nan nan nan nan nan nan nan nan nan nan nan nan nan nan nan nan nan nan nan nan nan nan nan nan nan nan nan nan nan nan
-0 -0 -0 -0 -0 -0 -0 -0 -0 -0 -0 -0 -0 -0 -0 -0 -0 -0 -0 -0 -0 -0 -15 -11 -11 -11 nan nan nan nan nan nan nan nan nan nan nan nan nan nan nan -2 -5 nan nan nan -14 nan nan nan nan nan nan nan nan nan nan nan nan nan nan nan nan nan nan nan nan nan nan nan nan nan nan nan nan nan nan nan nan nan nan nan nan nan nan nan
-0 -0 -0 -0 -0 -0 -0 -0 -0 -0 -0 -0 -0 -0 -0 -0 -0 -0 -0 -0 -0 -0 -2 -8 -8 -9 -25 nan nan nan nan nan nan nan nan nan nan nan nan nan nan -5 nan nan nan nan nan nan nan nan nan nan nan nan nan nan nan nan nan nan nan nan nan nan nan nan nan nan nan nan nan nan nan nan nan nan nan nan nan nan nan nan nan nan nan nan
-0 -0 -1 -1 -1 -0 -0 -0 -0 -0 -0 -0 -0 -0 -0 -0 -0 -0 -0 -0 -0 -0 -0 -0 -0 -0 nan nan nan nan nan nan nan nan nan nan nan nan nan nan nan nan nan nan nan nan nan nan nan nan nan nan nan nan nan nan nan nan nan nan nan nan nan nan nan nan nan nan nan nan nan nan nan nan nan nan nan nan nan nan nan nan nan nan nan nan
-0 -0 -1 -1 -1 -0 -0 -0 -0 -0 -0 -0 -0 -0 -0 -0 -0 -0 -0 -0 -0 -0 -0 -0 -0 -0 nan nan nan nan nan nan nan nan nan nan nan nan nan nan nan nan nan nan nan nan nan nan nan nan nan nan nan nan nan nan nan nan nan nan nan nan nan nan nan nan nan nan nan nan nan nan nan nan nan nan nan nan nan nan nan nan nan -0 -0 -0
-1 -1 -2 -1 -1 -1 -1 -1 -0 -0 -0 -0 -0 -0 -0 -0 -0 -0 -0 -0 -0 -0 -0 -0 -0 -0 nan nan nan nan nan nan nan nan nan nan nan nan nan nan nan nan nan nan nan nan nan nan nan nan nan nan nan nan nan nan nan nan nan nan nan nan nan nan nan nan nan nan nan nan nan nan nan nan nan nan nan nan nan nan nan -0 -0 -0 -0 -0
-3 -2 -1 -1 -1 -1 -1 -1 -0 -0 -1 -1 -1 -1 -0 -0 -0 -0 -0 -0 -0 -0 -0 -0 -0 -0 nan nan nan nan nan nan nan nan nan nan nan nan nan nan nan nan nan nan nan nan nan nan nan nan nan nan nan nan nan nan nan nan nan nan nan nan nan nan nan nan nan nan nan nan nan nan nan nan nan nan nan nan nan -1 -1 -0 -0 -0 -0 -0
-0 -0 -0 -0 -0 -0 -0 -0 -0 -0 -0 -1 -1 -1 -0 -0 -0 -0 -0 -0 -0 -0 -0 -0 -0 -0 nan nan nan nan nan nan nan nan nan nan nan nan nan nan nan nan nan nan nan nan nan nan nan nan nan nan nan nan nan nan nan nan nan nan nan nan nan nan nan nan nan nan nan nan nan nan nan nan nan nan nan nan -1 -0 -0 -0 -0 -0 -0 -0
-0 -0 -0 -0 -0 -0 -0 -0 -0 -0 -0 -0 -0 -0 -1 -0 -0 -0 -0 -0 -0 -0 -0 -0 -0 -6 nan nan nan nan nan nan nan nan nan nan nan nan nan nan nan nan nan nan nan nan nan nan nan nan nan nan nan nan nan nan nan nan nan nan nan nan nan nan nan nan nan nan nan nan nan nan nan nan -2 nan nan nan -0 -0 -0 -0 -0 -1 -1 -0
-0 -0 -0 -0 -0 -0 -0 -0 -0 -0 -0 -0 -0 -0 -0 nan nan nan nan nan nan -0 -0 -0 -0 -11 -10 nan nan nan nan -0 -0 -0 nan nan nan nan nan nan nan nan nan nan nan nan nan nan nan nan nan nan nan nan nan nan nan nan nan nan nan nan nan nan nan nan nan nan nan nan nan -1 -1 -1 -1 -0 -0 -0 -0 -0 -0 nan nan nan nan nan
-0 -0 -0 -0 -0 -0 -0 -0 -0 -0 -0 -0 -0 -0 -0 nan nan nan nan -0 -0 -0 -0 -0 -0 nan -9 nan nan nan nan nan nan nan -0 nan nan nan nan nan nan nan nan nan nan nan nan nan nan nan nan nan nan nan nan nan nan nan nan nan nan nan nan nan nan nan nan nan nan nan nan -1 nan nan nan -0 nan nan nan nan nan nan nan nan nan nan
-0 -0 -0 -0 -0 -0 -0 -0 -0 -0 -0 -0 -0 -0 -0 nan nan nan nan -0 -0 -0 -0 -0 -0 -0 nan nan nan nan nan nan nan nan -0 nan nan nan nan nan nan nan nan nan nan nan nan nan nan nan nan nan nan nan nan nan nan nan nan nan nan nan nan nan nan nan nan nan nan nan nan nan nan nan nan nan nan nan nan nan nan nan nan nan nan nan
nan nan nan nan nan -0 nan nan -0 -0 -0 -0 -0 -0 -0 nan nan nan nan -0 -0 -0 -0 -0 -0 -0 -0 nan nan nan nan nan nan nan nan nan nan nan nan nan nan nan nan nan nan nan nan nan nan nan nan nan nan nan nan nan nan nan nan nan nan nan -1 -2 -2 -2 -2 -2 -1 -1 -1 nan nan nan nan nan nan nan nan nan nan nan nan nan nan nan
nan nan nan nan nan nan nan nan nan nan nan nan nan nan -0 -0 -0 -0 nan nan nan nan -0 -0 -0 -0 -0 -0 nan nan nan nan -0 -0 nan nan -6 -6 nan nan nan nan nan nan nan nan nan nan nan nan nan nan nan nan nan nan nan nan nan nan nan nan -1 -2 -2 -0 -0 -0 -0 -0 -0 nan nan nan nan nan nan nan nan nan nan nan nan nan nan nan
nan nan nan nan nan nan nan nan nan nan nan nan nan nan nan nan -0 -0 -0 nan nan nan nan nan nan -0 -0 -0 nan nan nan nan -0 -0 nan nan -5 -5 nan nan nan nan nan nan nan nan nan nan nan nan nan nan nan nan nan nan nan nan nan nan nan nan -2 -3 -3 -4 -2 -1 -0 -0 -0 nan nan nan nan nan nan nan nan nan nan nan nan nan nan nan
nan nan nan nan nan nan nan nan nan nan nan nan -0 -0 nan nan nan nan -0 nan nan nan nan nan nan nan -0 -0 nan nan nan nan -0 -0 nan nan -10 -10 nan nan nan nan nan nan nan nan nan nan nan nan nan nan nan nan nan nan nan nan nan nan nan nan nan -3 -3 -5 -6 nan nan nan nan nan nan nan nan nan nan nan nan nan nan nan nan nan nan nan
nan nan nan nan nan nan nan nan nan nan nan nan nan nan nan nan nan nan nan nan nan nan nan nan nan nan nan -0 -0 -0 nan nan -0 -0 -0 nan nan nan nan nan nan nan nan nan nan nan nan nan nan nan nan nan nan nan nan nan nan nan nan nan nan nan nan nan nan nan nan nan nan nan nan nan nan nan nan nan nan nan nan nan nan nan nan nan nan nan
nan nan nan nan nan nan nan nan nan nan nan nan nan nan nan nan nan nan nan nan nan nan -0 nan nan nan nan nan nan nan nan nan nan nan nan nan nan nan nan nan nan nan nan nan nan nan nan nan nan nan nan nan nan nan nan nan nan nan nan nan nan nan nan nan nan nan nan nan nan nan nan nan nan nan nan nan nan nan nan nan nan nan nan nan nan nan
nan nan nan nan nan nan nan nan nan nan nan nan nan nan nan nan nan nan nan nan nan nan nan -0 -0 nan -0 nan nan nan nan nan nan nan nan nan nan nan nan nan nan nan nan nan nan nan nan nan nan nan nan nan nan nan nan nan nan nan nan nan nan nan nan nan nan nan nan nan nan nan nan nan nan nan nan nan nan nan nan nan nan nan nan nan nan nan
nan nan nan nan nan nan nan nan nan nan nan nan nan nan nan nan nan nan nan nan nan nan nan nan nan nan nan -0 nan nan nan nan nan nan nan nan nan nan nan nan nan nan nan nan nan nan nan nan nan nan nan nan nan nan nan nan nan nan nan nan nan nan nan nan nan nan nan nan nan nan nan nan nan nan nan nan nan nan nan nan nan nan nan nan nan nan
nan nan nan nan nan nan nan nan nan nan nan nan nan nan nan nan nan nan nan nan nan nan nan nan nan nan nan nan nan nan nan nan nan nan nan nan nan nan nan nan nan nan nan nan nan nan nan nan nan nan nan nan nan nan nan nan nan nan nan nan nan nan nan nan nan nan nan nan nan nan nan nan nan nan nan nan nan nan nan nan nan nan nan nan nan nan
nan nan nan -0 -0 nan nan nan nan nan nan nan nan nan nan nan nan nan nan nan nan nan nan nan nan nan nan nan nan nan nan nan nan nan nan nan nan nan nan nan nan nan nan nan nan nan nan nan nan nan nan nan nan nan nan nan nan nan nan nan nan nan nan nan nan nan nan nan nan nan nan nan nan nan nan nan nan nan nan nan nan nan nan nan nan nan
nan nan nan nan nan nan nan nan nan nan nan nan nan nan nan nan nan nan nan nan nan nan nan nan nan nan nan nan nan nan nan nan nan nan nan nan nan nan nan nan nan nan nan nan nan nan nan nan nan nan nan nan nan nan nan nan nan -1 nan nan nan nan nan nan nan nan nan nan nan nan nan nan nan nan nan nan nan nan nan nan nan nan nan nan nan nan
-0 nan nan nan nan nan nan nan nan nan nan nan nan nan nan nan nan nan nan nan nan nan nan nan nan nan nan nan nan nan nan nan nan nan nan nan nan nan nan nan nan nan nan nan nan nan nan nan nan nan nan nan nan nan nan nan nan nan nan nan nan nan nan nan nan nan nan nan nan nan nan nan nan nan nan nan nan nan nan nan nan nan nan nan nan nan
nan nan nan nan nan nan nan nan nan nan nan nan nan nan nan nan nan nan nan nan nan nan nan nan nan nan nan nan nan nan nan nan nan nan nan nan nan nan nan nan nan nan nan nan nan nan nan nan nan nan nan nan nan nan nan nan nan nan nan nan nan nan nan nan nan nan nan nan nan nan nan nan nan nan nan nan nan nan nan nan nan nan nan nan nan nan
nan nan nan nan nan nan nan nan nan nan nan nan nan nan nan nan nan nan nan nan nan nan nan nan nan nan nan nan nan nan nan nan nan nan nan nan nan nan nan nan nan nan nan nan nan nan nan nan nan nan nan nan nan nan nan nan nan nan nan nan nan nan nan nan nan nan nan nan nan nan nan nan nan nan nan nan nan nan nan nan nan nan nan nan nan nan
nan nan nan nan nan nan nan nan nan nan nan nan nan nan nan nan nan nan nan nan nan nan nan nan nan nan nan nan nan nan nan nan nan nan nan -0 -0 -0 nan nan nan nan nan nan nan nan nan nan nan nan nan nan nan nan nan nan nan nan nan nan nan nan nan nan nan nan nan nan nan nan nan nan nan nan nan nan nan nan nan nan nan nan nan nan nan nan
nan nan nan nan nan nan nan nan nan nan nan nan nan nan nan nan nan nan nan nan nan nan nan nan nan nan nan nan nan nan nan nan nan nan nan nan nan nan nan nan nan -0 nan nan nan nan nan nan nan nan nan nan nan nan nan nan nan nan nan nan nan nan nan nan nan nan nan nan nan nan nan nan nan nan nan nan nan nan nan nan nan nan nan nan nan nan
nan nan nan nan nan nan nan nan nan nan nan nan nan nan nan nan nan nan nan nan nan nan nan nan nan nan nan nan nan nan nan nan nan nan nan nan nan nan nan nan nan -0 nan nan nan nan nan nan nan nan nan nan nan nan nan nan nan nan nan nan nan nan nan nan nan nan nan nan nan nan nan nan nan nan nan nan nan nan nan nan nan nan nan nan nan nan
nan nan nan nan nan nan nan nan nan nan nan nan nan nan nan nan nan nan nan nan nan nan nan nan nan nan nan nan nan nan nan nan nan nan nan nan nan nan nan nan nan nan nan nan nan nan nan nan nan nan nan nan nan nan nan nan nan nan nan nan nan nan nan nan nan nan nan nan nan nan nan nan nan nan nan nan nan nan nan nan nan nan nan nan nan nan
nan nan nan nan nan nan nan nan nan nan nan nan nan nan nan -0 -0 -0 nan nan nan nan nan nan nan nan nan nan nan nan nan nan nan nan nan nan nan nan nan nan nan nan nan nan nan nan nan nan nan nan nan nan nan nan nan nan nan nan nan nan nan nan nan nan nan nan nan nan nan nan nan nan nan nan nan nan nan nan nan nan nan nan nan nan nan nan
nan nan nan nan nan nan nan nan nan nan nan nan nan nan nan nan nan nan nan nan nan nan nan nan nan nan nan nan nan nan nan nan nan nan nan nan nan nan nan nan nan nan nan nan nan nan nan nan nan nan -0 nan nan nan nan nan nan nan nan nan nan nan nan nan nan nan nan nan nan nan nan nan nan nan nan nan nan nan nan nan nan nan nan nan nan nan
nan nan nan nan nan nan nan nan nan nan nan nan nan nan nan nan nan nan nan nan nan nan nan nan nan nan nan nan nan nan nan nan nan nan nan nan nan nan nan nan nan nan nan nan nan nan nan nan nan nan -0 -0 nan nan nan nan nan nan nan nan nan nan nan nan nan nan nan nan nan nan nan nan nan nan nan nan nan nan nan nan nan nan nan nan nan nan
Wind_Speed
7 7 7 7 6 4 4 2 2 3 4 4 5 5 5 5 6 7 9 11 12 12 11 10 10 9 7 9 12 16 19 20 20 18 13 11 10 10 10 9 8 7 7 7 8 8 9 11 13 15 16 17 18 21 22 22 23 22 22 18 17 17 18 19 19 18 18 19 20 20 21 21 21 21 21 21 22 22 22 20 19 19 19 19 19 19
7 7 6 6 6 5 4 3 1 1 2 4 4 5 5 6 6 6 7 9 11 11 9 9 9 9 8 7 9 13 16 18 18 16 12 10 9 9 9 8 7 7 7 6 7 7 8 9 11 13 14 16 18 21 22 23 23 23 21 18 17 18 20 21 21 20 19 20 20 20 20 20 21 21 22 23 24 24 23 22 21 20 19 19 19 19
7 7 6 6 6 6 5 3 2 1 1 3 4 5 6 6 6 6 6 8 9 10 8 7 7 8 7 6 8 11 12 13 14 14 12 10 9 9 8 8 7 7 7 7 7 7 7 8 9 11 12 14 17 20 22 23 23 22 21 17 17 18 20 21 21 20 19 20 20 20 19 19 20 21 23 24 25 25 24 23 22 21 20 19 19 20
7 7 6 6 6 6 6 4 2 2 2 2 4 5 6 6 5 5 6 8 9 9 8 7 7 6 6 5 6 9 10 10 10 11 11 10 10 9 9 8 8 8 8 8 7 7 7 8 9 10 11 13 16 20 23 24 24 23 21 18 18 19 20 20 20 19 18 19 19 19 19 18 19 20 22 23 24 24 24 23 23 23 21 20 20 21
7 7 6 5 5 5 5 4 3 2 2 2 3 5 6 5 5 5 6 8 10 10 8 7 6 6 4 4 5 7 9 8 8 8 9 10 10 10 10 9 9 9 9 8 8 8 8 8 9 10 11 12 15 19 23 24 25 24 22 20 20 21 21 20 19 18 18 18 18 18 18 18 19 20 21 22 22 23 23 22 22 22 21 20 21 22
7 6 5 5 4 4 4 3 2 2 2 2 3 4 5 4 4 4 5 7 9 10 9 7 5 5 4 4 5 6 7 7 7 7 7 9 10 10 11 10 10 9 9 9 9 9 8 9 9 10 11 12 14 17 21 24 25 25 24 22 23 23 22 21 20 19 19 19 18 17 17 17 18 20 21 20 20 20 20 20 20 20 20 20 21 23
6 6 5 4 4 4 3 3 3 2 2 3 3 4 5 4 5 5 5 6 8 9 9 6 5 4 5 4 4 4 5 5 5 5 6 7 8 9 10 10 10 10 10 10 9 9 9 9 9 10 11 12 13 15 18 22 24 25 26 25 25 25 24 22 21 20 19 19 18 17 16 16 17 19 21 20 19 18 17 17 18 19 20 21 23 24
6 5 4 4 4 4 3 3 3 3 3 3 4 4 4 5 5 6 7 7 8 9 8 5 4 4 4 4 3 2 3 3 3 4 4 5 6 7 8 9 10 10 10 10 10 10 10 9 10 10 11 12 13 14 15 19 22 24 26 27 27 26 25 23 22 20 20 19 18 17 16 16 17 17 18 19 19 18 17 17 18 20 21 23 24 25
7 6 5 5 5 5 5 4 3 3 3 4 4 4 5 5 5 5 6 7 7 7 6 5 4 3 3 3 2 1 2 2 2 3 3 3 4 5 6 7 8 10 11 11 11 11 10 10 10 10 10 11 12 13 14 16 18 21 24 26 27 26 25 23 21 20 19 19 18 17 16 16 16 16 16 17 18 17 17 17 19 21 23 24 25 26
7 7 6 5 5 5 5 5 4 3 3 4 4 5 4 5 5 5 6 6 6 4 4 3 3 3 3 2 1 1 1 2 2 3 4 5 5 5 6 6 7 8 10 11 11 11 11 11 10 10 10 11 12 12 13 14 15 17 19 21 23 23 23 22 20 19 18 17 16 16 16 16 15 14 13 15 16 16 16 16 19 21 22 23 24 25
6 6 6 5 5 5 4 4 4 3 3 4 4 4 4 4 4 5 6 6 5 4 3 2 2 2 3 2 1 0 1 1 2 3 4 5 6 6 7 6 7 7 9 10 11 12 12 12 11 11 11 11 11 11 12 12 13 13 14 16 17 19 20 19 19 18 16 14 14 14 15 15 14 12 12 13 14 15 15 16 18 20 21 21 22 23
3 3 3 3 2 2 1 2 2 3 3 3 3 4 4 4 4 4 5 6 5 4 4 3 2 2 2 2 1 1 1 1 2 2 3 4 5 6 6 6 6 7 7 9 10 11 12 13 13 12 11 11 11 11 11 11 11 11 11 12 14 15 17 17 17 16 15 13 13 13 14 14 13 12 11 12 13 14 15 16 17 18 19 19 20 21
5 4 4 3 3 3 3 4 4 4 4 4 4 3 2 2 2 2 4 5 5 5 4 3 3 2 2 2 1 1 1 2 2 2 2 3 4 4 4 4 4 4 5 6 7 8 11 12 13 12 12 11 11 12 12 12 11 11 10 11 12 14 15 16 16 16 15 13 12 12 13 13 13 12 12 13 14 15 16 16 17 17 17 17 18 19
5 5 5 4 5 5 5 4 4 4 4 5 5 6 6 5 5 4 4 4 4 4 3 3 3 3 2 1 1 1 1 2 2 2 3 3 3 4 4 4 4 3 4 4 4 5 8 9 9 10 12 12 12 12 12 12 12 12 11 11 13 15 16 17 17 16 15 13 12 12 13 13 14 14 14 15 16 16 17 17 16 16 16 16 18 20
6 5 5 5 4 4 4 4 4 4 4 4 4 5 5 6 6 5 5 4 4 3 3 3 4 3 2 2 1 1 2 2 3 3 3 3 3 3 4 4 4 3 3 4 4 4 6 7 7 7 9 11 11 11 11 12 13 14 12 12 14 16 18 18 17 16 15 13 13 13 13 14 15 16 16 17 17 17 17 17 17 17 17 18 20 21
5 5 5 5 5 4 4 4 4 4 4 4 5 5 5 5 6 6 6 5 3 2 2 3 3 4 3 2 2 2 2 3 3 3 3 3 2 2 3 4 4 4 4 4 4 4 5 6 6 7 8 10 12 12 12 12 13 15 14 14 15 17 19 19 18 16 14 13 13 13 14 16 17 18 18 18 18 18 18 18 19 20 21 22 23 24
5 5 5 5 5 5 4 4 4 5 5 5 5 5 5 5 5 5 6 5 4 2 2 3 3 3 3 2 2 2 3 3 3 3 3 3 1 1 1 3 4 4 4 4 4 4 4 5 5 6 7 9 12 13 13 13 15 16 16 16 17 18 19 19 18 16 14 14 14 15 16 18 19 20 20 21 21 21 21 21 22 23 24 25 26 26
5 5 5 5 5 5 5 4 4 4 4 5 5 5 5 4 4 5 6 5 4 3 3 3 3 2 2 2 2 1 2 3 3 3 3 3 1 0 1 2 4 4 4 4 4 4 4 4 5 5 6 10 13 14 15 15 15 16 17 17 18 18 19 19 18 17 15 15 16 17 18 20 21 22 23 24 24 24 24 25 25 26 26 27 27 27
5 5 5 5 5 5 5 4 4 5 5 5 5 5 6 5 5 5 5 6 6 4 3 3 3 2 2 2 2 2 1 1 2 3 3 3 1 0 0 2 3 4 4 4 4 4 4 4 5 6 8 12 14 15 16 16 16 17 18 18 18 18 19 19 18 18 18 18 18 19 20 22 23 25 27 27 27 27 27 27 27 27 27 27 28 28
5 5 5 6 6 5 5 5 5 5 5 5 5 5 6 5 5 5 5 6 6 5 2 2 2 2 2 2 2 2 1 1 1 2 3 2 1 1 1 2 4 4 4 3 3 4 4 4 5 7 10 12 15 16 16 16 17 17 18 18 18 19 19 20 20 21 21 22 22 22 22 23 25 27 29 29 29 29 29 29 29 29 29 28 28 29
5 6 6 6 5 5 5 5 6 7 7 7 6 5 5 5 5 5 5 6 7 6 3 1 1 1 1 1 2 1 1 1 1 1 2 2 1 1 1 1 3 4 4 3 3 3 4 5 5 5 8 12 15 16 17 17 17 18 18 19 19 20 21 23 24 25 25 26 26 25 25 25 27 29 31 31 31 30 30 31 31 31 31 30 30 30
5 6 6 7 6 6 6 6 7 8 8 7 6 5 4 4 4 5 5 6 7 7 6 4 3 3 3 2 2 1 1 1 1 1 1 2 1 1 1 1 2 4 3 2 2 3 4 4 5 6 8 13 15 16 17 17 18 18 19 20 21 22 24 26 27 28 29 29 29 28 27 28 29 30 31 32 32 32 32 32 32 33 33 32 32 31
5 6 6 7 6 6 6 7 7 7 7 6 5 4 4 4 4 5 5 6 6 6 6 6 6 5 4 3 2 2 2 2 1 1 2 2 1 0 1 0 2 3 3 2 2 3 4 4 5 6 9 14 16 17 17 18 18 19 21 22 24 25 27 28 30 31 31 31 31 31 30 30 30 31 32 33 33 33 33 33 34 34 34 33 32 31
6 6 6 6 6 6 6 6 6 6 5 4 4 3 4 4 5 5 5 6 6 6 6 7 6 5 3 2 2 2 2 2 2 1 1 2 1 0 1 1 2 3 3 2 2 3 4 4 4 5 7 13 16 18 18 19 20 22 24 25 27 28 30 31 32 33 34 34 33 33 32 32 32 32 33 34 34 34 34 34 34 34 34 33 32 31
7 6 6 7 8 9 9 9 9 9 8 6 4 4 4 5 5 5 6 6 6 6 6 6 5 4 2 1 1 1 2 2 1 1 1 1 1 1 1 1 3 3 3 2 2 3 4 4 4 4 6 11 16 19 21 22 23 25 27 28 30 31 32 33 33 34 35 35 35 35 34 33 33 34 34 34 35 35 35 34 34 34 33 32 31 30
11 11 12 13 15 16 17 16 16 16 16 11 8 5 4 4 4 3 3 3 4 5 5 5 4 2 0 0 1 1 2 2 1 0 1 2 2 2 1 2 3 4 4 3 3 3 5 5 5 4 5 9 14 20 23 25 26 28 29 31 32 33 34 34 35 35 36 36 36 36 35 35 34 34 34 34 35 35 35 35 34 33 32 31 30 29
17 18 18 19 19 19 19 19 20 20 21 18 15 11 7 5 4 3 3 4 4 5 5 4 3 2 1 1 1 1 2 2 2 2 1 2 3 3 2 3 4 4 5 4 4 4 6 6 5 5 5 7 11 17 24 27 28 30 31 32 33 34 35 36 36 36 37 37 37 37 36 36 35 34 34 34 34 35 35 35 34 32 30 27 25 24
18 19 19 19 19 19 19 19 19 20 20 20 19 17 11 7 6 5 5 5 5 5 4 4 3 1 2 1 1 1 2 2 2 3 2 1 3 4 3 3 4 5 6 5 5 6 7 7 6 6 6 7 10 14 22 26 28 30 32 33 34 35 36 37 37 37 37 37 37 37 36 36 35 34 34 34 34 34 34 34 32 30 25 20 17 16
17 17 17 18 18 18 18 17 17 18 19 20 20 17 12 7 6 5 5 5 5 5 5 5 4 2 1 1 1 1 2 2 2 3 3 1 3 4 4 4 5 6 7 6 5 6 7 6 6 6 6 9 10 12 16 20 23 26 29 32 33 34 36 36 37 37 37 36 36 36 36 35 35 34 33 33 33 32 32 31 28 24 18 15 13 12
13 14 14 15 15 15 14 13 14 15 17 19 18 16 11 7 5 5 5 5 5 5 5 5 5 4 2 0 1 1 1 2 3 3 3 1 4 5 5 5 5 6 7 6 6 5 5 5 5 5 6 9 10 11 11 13 15 17 20 25 28 30 34 35 36 36 36 35 35 35 35 34 34 33 32 31 31 30 30 27 23 18 13 12 11 11
11 11 11 11 11 11 10 10 10 11 13 15 15 13 10 7 6 5 5 5 5 4 5 5 5 5 4 1 1 1 1 2 3 3 3 1 4 5 5 5 5 5 6 6 6 6 5 3 3 4 6 8 9 10 10 11 12 12 14 16 19 23 30 32 33 33 34 34 34 34 33 33 32 31 31 30 30 29 28 25 21 16 12 11 11 11
10 9 9 9 9 8 8 8 8 9 9 10 10 10 9 8 7 6 5 5 4 4 4 4 5 5 5 3 1 1 1 2 3 4 3 1 3 4 4 5 5 4 4 6 7 8 6 4 3 3 4 6 7 8 10 10 10 11 12 13 14 18 25 26 28 29 29 31 32 33 32 31 31 30 29 29 29 29 28 25 21 16 11 11 12 11
9 8 8 8 8 8 7 7 8 8 8 8 8 8 8 8 7 7 5 5 5 4 4 4 5 5 5 4 3 1 1 2 3 3 3 1 3 4 4 4 5 5 4 5 7 8 8 6 5 4 4 5 5 6 7 8 8 9 11 12 13 14 18 19 20 21 22 24 26 28 29 29 29 29 29 29 29 28 27 26 22 18 13 12 12 12
9 8 8 8 8 7 7 8 8 8 7 7 7 7 7 7 7 7 6 5 5 4 4 4 4 4 5 4 2 2 2 2 3 3 3 2 2 3 4 4 5 6 6 6 7 8 8 7 6 6 5 4 5 5 6 6 6 7 8 10 11 11 12 12 14 15 16 17 17 19 20 22 24 26 26 27 27 27 27 26 24 21 17 14 12 12
8 8 8 8 8 8 8 8 8 8 7 7 7 7 7 7 7 6 6 6 5 5 4 4 3 3 3 3 3 2 3 3 3 3 2 2 2 2 4 4 5 7 8 8 9 8 8 8 8 8 7 5 5 5 5 6 6 6 7 8 9 9 9 10 11 12 13 13 12 12 12 13 15 17 19 22 24 25 26 26 24 23 21 18 15 12
8 8 8 8 8 8 8 8 8 8 8 7 7 7 7 7 7 6 6 6 6 6 5 4 4 3 3 3 3 3 4 4 4 3 2 2 2 2 2 3 5 6 8 9 10 10 9 8 9 9 9 7 6 5 5 5 6 7 8 8 9 9 9 9 9 10 10 11 11 10 9 9 10 11 14 20 24 25 26 26 25 24 22 20 17 14
8 8 8 8 8 8 9 8 8 8 8 8 8 8 8 7 7 7 7 6 6 6 6 5 5 4 4 3 4 4 5 5 4 1 3 4 3 2 2 2 4 5 7 9 10 11 11 10 9 8 8 7 6 5 4 5 6 8 8 8 9 9 9 9 9 9 10 11 10 10 9 10 10 12 15 21 23 24 25 25 24 24 23 22 20 18
8 8 8 8 8 8 8 8 8 8 8 8 8 8 8 8 8 8 7 7 7 7 6 5 5 5 7 6 5 4 4 4 3 1 7 6 5 2 1 2 3 3 4 8 10 12 13 13 11 9 7 6 7 7 7 6 7 8 8 8 9 9 9 9 9 9 9 10 10 10 10 10 10 11 12 13 14 14 15 16 17 20 21 21 21 21
8 8 9 9 9 8 8 8 8 8 8 8 8 8 8 8 8 8 7 7 7 7 7 6 5 5 6 6 6 6 5 4 3 6 10 9 6 4 2 2 3 3 3 5 8 11 12 13 12 11 9 8 8 8 7 7 8 9 9 9 9 10 9 9 9 9 9 9 10 10 9 9 9 9 9 8 8 9 9 9 10 12 13 14 16 18
9 9 9 9 9 9 9 9 8 8 8 8 9 9 8 8 8 8 7 7 7 7 7 6 5 4 4 5 7 9 9 8 8 9 10 10 7 5 4 3 3 3 3 4 5 7 10 11 12 12 12 10 9 8 7 7 8 9 10 9 8 8 8 8 9 8 8 9 9 9 8 8 8 8 8 8 8 8 8 7 7 8 9 9 9 11
9 9 9 9 9 9 9 9 8 8 8 8 8 8 8 8 8 8 8 8 8 7 7 7 5 4 4 6 8 10 11 10 10 11 10 12 11 8 6 5 4 3 3 4 4 6 8 11 13 12 11 11 11 11 10 9 9 11 12 10 8 7 8 9 9 8 9 9 9 9 9 9 9 9 9 9 8 7 7 7 7 7 7 6 7 7
10 9 9 9 9 9 8 9 9 9 8 8 8 8 8 8 8 8 8 8 8 8 7 6 5 4 5 7 9 10 11 11 12 13 14 15 14 11 8 6 5 3 3 4 5 6 8 11 12 13 12 11 10 10 9 10 11 11 12 11 10 10 10 9 8 8 9 9 9 9 10 10 9 9 10 9 8 8 8 9 10 10 8 6 6 6
9 9 8 8 8 8 9 9 9 9 8 8 8 8 8 8 8 8 8 8 8 8 8 7 5 4 5 6 8 9 10 12 13 14 15 15 14 13 11 9 7 4 2 4 6 7 8 10 11 11 11 10 11 11 12 10 10 10 10 10 10 8 6 5 5 6 9 9 9 9 9 9 8 8 9 9 8 8 9 10 11 11 9 7 6 6
8 8 8 8 8 8 8 8 8 8 8 8 8 8 8 9 9 9 8 7 7 8 8 6 5 4 5 7 7 8 8 11 13 15 16 16 15 14 12 11 9 7 5 4 6 7 7 9 9 9 9 10 12 13 13 11 10 9 7 8 8 8 7 5 5 7 8 9 8 8 9 8 8 8 8 9 8 8 8 8 8 8 9 8 8 8
8 8 8 8 8 8 9 9 8 8 8 8 8 8 9 9 9 9 8 7 8 8 8 7 5 4 5 6 6 6 7 8 10 12 13 15 16 16 14 11 9 8 7 6 5 6 8 9 9 8 8 9 11 12 13 12 11 10 9 9 10 10 9 7 7 8 9 9 9 8 9 8 8 9 10 9 8 8 7 7 7 7 7 7 7 8
8 8 9 8 9 9 10 9 9 8 8 8 9 9 9 9 8 8 8 8 8 8 8 7 6 5 5 5 5 5 6 7 8 8 8 10 11 12 12 11 10 8 8 8 8 7 7 8 9 9 10 10 11 11 11 11 11 11 10 11 11 10 9 8 8 8 9 9 9 8 8 9 10 10 9 9 8 7 7 7 7 7 6 6 7 7
9 9 9 9 9 9 9 9 9 8 8 9 9 9 9 9 8 8 8 8 8 7 7 7 7 7 7 6 6 6 6 7 7 7 7 8 9 10 10 10 11 10 10 10 10 11 10 9 8 8 9 11 11 11 10 10 10 11 11 11 11 10 9 8 8 8 9 9 9 8 7 9 10 11 10 9 8 7 6 6 6 6 5 5 6 6
9 9 9 9 9 9 9 9 9 9 9 9 8 8 9 9 10 9 8 8 8 7 7 7 7 8 8 8 7 7 7 7 7 7 6 7 7 8 9 9 10 10 11 12 14 14 14 14 12 9 7 8 10 11 10 10 10 10 10 10 10 10 10 9 8 7 8 8 8 8 8 8 10 10 10 9 8 7 6 5 5 5 4 4 4 5
9 9 9 9 9 9 9 9 9 9 9 9 8 8 8 9 10 10 8 8 8 7 7 8 8 8 8 8 8 8 8 7 6 6 6 5 5 6 7 8 8 9 10 11 13 14 15 16 16 15 11 9 8 10 11 10 10 10 9 9 10 10 10 9 8 7 7 7 8 8 7 7 8 9 10 10 10 8 6 5 4 4 4 3 3 4
9 8 9 9 9 9 9 9 9 9 9 9 9 8 8 8 8 8 8 8 7 7 8 8 8 8 8 8 8 8 8 7 6 6 5 4 4 4 5 6 7 8 9 9 9 10 12 13 14 16 18 15 11 9 9 10 11 10 10 9 9 9 10 9 7 7 7 7 8 8 9 7 6 7 8 10 10 9 7 5 4 3 3 2 2 3
9 9 9 8 9 9 9 9 9 9 9 9 8 8 8 8 8 8 8 8 8 8 8 8 8 8 8 8 8 8 8 7 7 7 6 5 4 3 2 3 5 6 7 7 7 7 7 8 9 11 16 18 17 12 6 8 10 11 10 9 8 8 9 8 7 7 8 8 7 8 8 7 6 6 7 9 10 9 7 6 4 3 2 2 2 3
Wind_Direction
280 283 284 280 278 278 278 290 329 339 326 318 313 310 311 313 312 307 304 298 290 284 280 281 280 276 264 238 227 223 223 223 224 222 215 199 185 177 175 177 178 180 184 190 195 197 198 200 201 200 196 189 187 189 195 202 207 211 214 214 214 214 214 214 214 213 212 210 210 209 209 207 203 199 195 195 197 199 200 196 191 186 184 183 180 176
275 279 281 279 279 277 275 263 254 294 314 309 305 302 302 305 308 309 303 291 281 275 271 276 279 279 276 257 230 219 216 215 214 213 207 194 184 179 179 183 186 189 190 193 196 197 197 196 197 197 194 189 187 188 193 200 206 210 212 212 212 212 213 213 212 211 211 209 208 208 208 206 202 198 194 193 194 196 197 196 193 189 185 181 177 172
275 278 281 283 284 283 279 262 231 205 246 285 287 286 286 292 299 303 300 288 278 270 263 268 275 280 283 270 238 220 214 208 204 200 193 183 177 176 181 188 193 197 199 200 200 200 199 196 195 194 192 189 188 188 192 199 204 208 210 210 210 211 212 212 211 210 209 208 208 209 209 207 203 198 194 191 190 190 191 192 191 188 185 180 174 169
269 272 276 280 281 280 279 267 239 208 214 258 267 268 268 274 283 291 292 287 281 274 264 264 270 279 289 275 246 227 215 205 196 188 179 174 172 175 180 188 195 200 203 204 204 203 202 199 196 193 191 190 189 190 193 198 203 206 207 208 209 211 212 211 210 209 207 208 209 210 211 211 209 204 198 192 188 186 184 185 185 184 182 179 174 169
260 263 269 273 275 277 278 271 251 218 211 245 255 257 257 260 270 279 282 283 282 278 271 267 267 272 282 276 248 229 217 207 194 182 174 171 171 174 179 187 193 199 203 204 205 205 204 201 198 196 193 191 190 191 193 197 201 203 204 206 209 211 212 211 209 208 207 208 210 211 212 213 213 211 206 197 190 185 182 182 181 181 179 178 177 174
259 259 263 267 271 277 285 284 271 249 237 250 253 252 252 255 263 273 275 277 278 277 272 268 267 266 265 260 242 227 217 207 195 183 177 173 173 175 179 185 191 196 200 202 204 205 205 203 201 198 195 192 190 190 192 196 198 200 202 204 207 210 211 210 209 208 207 208 209 210 211 213 214 213 211 202 194 187 183 182 182 181 180 179 179 177
260 259 261 267 273 281 288 285 275 262 253 258 257 254 252 253 258 263 265 267 271 272 270 264 260 259 257 250 240 229 219 207 196 186 182 180 179 180 182 185 189 193 196 199 202 203 204 203 202 200 197 194 190 189 188 192 196 199 201 203 206 208 209 208 208 207 208 209 209 209 209 211 213 213 212 207 201 195 190 189 188 187 186 184 182 179
260 261 262 269 277 283 283 276 263 250 244 251 255 257 257 256 257 258 260 259 262 265 267 263 258 256 256 249 241 230 223 211 200 189 184 186 188 190 191 191 192 193 195 197 199 202 204 204 203 201 199 196 192 189 186 189 193 197 200 202 204 206 206 206 206 207 208 209 209 208 206 207 209 211 211 209 207 204 202 200 198 197 195 191 186 180
258 261 262 267 273 279 282 278 264 243 231 241 248 254 259 262 264 264 264 261 259 259 262 266 267 266 262 256 245 228 222 222 214 201 189 189 194 199 201 200 198 197 196 197 198 200 202 204 203 202 199 197 194 191 188 188 190 194 197 201 202 203 202 203 204 206 208 208 208 206 204 203 204 206 207 208 208 207 208 208 206 204 201 193 185 177
249 252 256 258 260 263 269 274 269 250 225 236 243 247 251 260 267 273 274 271 266 261 259 267 273 278 278 276 264 230 215 229 225 214 199 195 195 199 206 208 205 202 200 198 198 199 201 203 203 203 200 197 194 192 189 187 187 189 192 195 196 197 197 198 201 204 206 204 202 200 198 197 197 198 200 202 203 204 205 207 208 206 202 191 181 172
241 238 236 238 239 242 250 266 270 264 242 246 245 243 240 245 255 267 275 277 279 280 277 273 272 275 280 288 290 267 207 239 236 222 205 197 197 200 206 209 209 206 203 200 198 198 199 201 203 203 201 198 194 191 188 184 183 182 183 185 186 187 188 193 197 200 201 197 193 191 189 188 187 188 192 195 196 196 197 200 203 203 199 186 176 167
301 275 250 234 230 240 275 308 315 310 296 277 258 242 234 229 233 246 263 273 280 285 288 286 279 268 265 277 286 287 239 244 241 229 210 198 196 198 204 208 209 206 202 199 198 198 199 200 201 202 202 199 196 192 188 183 180 178 177 178 179 179 181 188 193 196 196 191 187 183 181 179 179 182 188 191 190 189 188 191 194 194 192 182 173 165
347 339 332 344 5 19 16 6 359 352 343 336 326 314 301 293 267 252 254 264 269 274 282 287 285 278 266 263 267 270 261 250 238 224 208 200 195 194 198 206 207 205 199 197 196 196 196 197 199 201 202 201 199 195 191 187 182 178 176 177 177 177 179 186 190 192 191 187 184 181 177 175 177 181 187 187 185 182 179 180 182 183 183 177 169 161
350 344 342 357 11 19 15 7 4 1 356 348 341 337 335 332 323 306 276 263 259 261 269 277 282 284 288 279 264 248 243 242 229 214 203 200 194 191 192 200 203 201 193 194 194 192 188 190 195 200 201 201 200 198 195 190 185 181 178 176 175 176 178 184 187 188 187 184 182 181 180 178 179 181 184 181 177 173 169 168 169 170 170 165 159 152
351 348 350 359 7 10 5 360 357 355 346 335 328 322 320 323 322 315 295 273 258 251 253 268 276 281 287 279 261 229 214 221 215 204 194 192 187 184 185 194 199 200 196 198 195 187 178 183 189 195 197 200 201 199 195 192 188 183 179 174 173 173 175 179 181 181 180 178 178 179 179 178 177 177 176 171 166 161 157 156 155 156 156 151 146 141
352 352 352 353 356 358 356 352 350 347 340 331 327 326 327 329 327 321 308 296 279 251 237 257 270 278 284 277 255 216 202 211 207 194 178 176 176 177 178 188 195 201 201 201 196 186 176 180 185 189 192 195 194 191 189 191 188 184 179 175 172 171 171 173 173 173 171 170 171 172 172 171 169 167 164 158 153 148 145 144 144 144 143 140 136 133
353 353 352 349 349 348 346 345 345 344 339 333 330 328 325 323 321 315 305 300 289 259 219 231 247 262 280 286 269 228 199 201 196 183 166 167 171 189 178 186 193 199 202 201 196 187 176 177 180 184 188 187 185 184 184 185 184 181 178 174 171 169 169 170 170 168 165 163 163 163 162 160 158 155 151 145 140 137 136 136 136 136 134 132 130 128
353 354 350 345 343 340 337 337 340 341 339 334 328 323 315 309 305 303 299 294 285 266 221 215 222 234 246 270 274 253 204 189 184 177 165 164 164 194 200 194 196 198 201 202 197 187 177 176 178 179 180 176 176 176 178 179 179 178 175 172 169 166 166 167 167 166 162 157 154 153 152 150 148 145 140 136 133 131 131 131 130 129 128 127 126 125
352 354 349 344 337 332 330 335 339 341 340 335 328 320 313 310 307 304 299 292 285 272 234 212 211 220 226 242 262 274 280 169 171 173 165 153 136 63 315 196 197 199 201 199 192 182 173 171 170 169 167 166 168 169 171 172 173 173 171 167 164 162 161 162 162 161 156 150 146 143 143 142 140 137 133 130 129 128 128 126 125 124 123 122 121 120
349 351 348 339 332 327 327 334 337 338 336 331 323 315 309 310 310 307 299 293 288 281 252 217 212 220 227 246 263 278 340 75 134 162 153 133 105 0 332 193 192 194 196 190 181 171 165 160 158 158 159 160 162 163 165 166 166 165 164 161 158 155 153 153 153 151 147 142 138 136 135 135 133 131 128 127 126 126 124 123 121 119 118 117 116 115
345 346 342 335 330 328 330 333 332 331 331 328 321 312 306 308 309 308 304 302 301 302 303 281 265 270 273 257 262 278 31 74 100 135 132 111 77 351 320 203 188 185 180 175 168 161 155 152 153 156 157 158 159 159 160 160 160 158 156 154 151 148 146 145 144 141 138 135 132 130 130 130 128 126 125 124 123 122 120 119 117 116 115 113 112 111
341 339 334 331 329 330 331 326 324 324 326 327 322 314 308 307 305 303 303 303 305 310 320 326 325 318 309 288 280 290 33 76 91 106 108 108 88 337 310 209 166 160 155 151 147 146 144 144 148 154 158 157 156 155 155 155 154 152 150 148 145 143 140 139 137 135 132 130 128 126 126 125 124 123 122 121 120 119 117 116 115 114 113 112 111 110
339 334 330 329 329 330 330 324 319 318 322 323 319 311 301 296 291 289 289 287 291 297 303 303 299 294 285 280 289 317 20 54 70 84 98 120 130 282 311 85 131 136 138 131 128 128 129 133 140 148 152 153 153 151 150 150 148 146 144 142 140 138 136 134 132 130 128 126 124 123 123 122 121 120 119 118 117 116 115 115 114 113 112 112 111 110
338 335 331 331 332 333 332 328 324 321 321 322 316 304 288 279 273 270 268 269 273 278 283 282 281 278 273 279 302 342 9 30 53 83 108 121 120 100 328 116 123 121 114 105 105 109 112 117 128 140 147 149 148 146 145 144 142 140 138 136 135 133 131 130 128 127 125 123 122 122 121 121 120 119 118 117 117 116 115 114 113 112 112 111 111 111
345 342 341 341 344 346 346 342 337 335 336 335 330 318 300 284 272 262 256 257 259 261 263 267 268 270 282 291 312 336 345 2 32 105 152 128 109 89 34 114 117 111 98 82 83 94 101 102 109 123 136 141 141 139 138 138 136 135 133 132 131 130 128 126 125 124 123 122 122 121 121 121 120 119 118 117 116 116 115 114 113 112 112 111 111 111
354 354 354 353 353 353 353 349 345 344 347 348 349 345 332 310 293 278 269 276 281 279 270 258 250 243 253 19 7 347 334 347 352 315 197 144 122 103 71 93 102 102 94 78 78 88 96 95 96 103 117 131 134 134 133 132 131 130 129 129 128 126 125 124 123 122 122 122 121 121 121 120 120 119 118 117 116 115 115 114 113 112 111 110 110 111
357 357 357 357 357 357 355 352 349 347 349 353 357 360 356 344 343 354 5 352 335 320 301 277 253 212 161 119 74 20 338 344 342 325 258 147 126 112 100 103 106 105 97 81 75 78 86 87 88 90 98 114 122 126 127 126 126 125 125 125 124 123 122 121 121 121 120 121 121 121 121 120 119 119 118 117 116 116 115 114 113 111 110 109 109 109
357 358 359 359 359 358 356 352 349 348 350 354 359 3 5 4 7 10 4 349 333 318 300 286 271 228 184 145 101 44 332 337 331 319 293 140 123 116 118 120 117 111 103 88 74 69 72 74 77 81 87 97 107 114 117 119 119 120 120 120 120 120 120 119 119 119 119 119 120 120 120 119 119 118 117 117 116 115 114 113 112 110 109 108 108 108
355 356 357 358 357 356 354 350 348 347 350 354 358 3 8 10 11 4 347 335 326 316 303 296 292 284 227 129 95 54 324 318 312 304 287 144 122 119 126 128 125 118 110 101 85 70 62 59 62 71 83 93 98 103 108 110 112 114 114 115 116 116 117 117 117 118 118 118 118 118 119 118 118 117 117 116 115 114 112 111 110 109 107 106 106 106
353 354 354 354 354 353 350 347 345 346 349 353 357 360 4 5 2 352 336 331 328 323 315 309 308 308 309 90 103 86 306 298 305 303 282 160 130 126 130 131 132 130 123 115 102 85 69 53 49 60 80 91 95 97 101 103 105 106 108 110 111 112 113 114 115 115 115 116 116 116 116 116 116 116 115 113 112 110 109 107 107 106 105 104 103 103
350 351 351 350 349 348 347 345 344 344 347 351 354 356 357 356 352 345 335 332 329 325 320 316 314 313 313 281 175 163 224 277 305 314 297 143 130 129 135 133 135 137 132 125 118 110 99 73 51 54 75 87 91 94 98 101 102 104 105 105 106 108 110 111 111 112 112 112 113 113 113 113 113 113 112 110 108 107 105 104 104 105 106 105 103 101
349 349 349 347 346 345 346 346 345 344 346 348 350 350 349 349 347 344 337 331 326 322 320 318 316 314 311 302 279 192 207 264 303 323 324 91 121 127 134 130 130 131 128 124 122 121 119 112 93 74 73 81 86 91 94 96 99 103 106 104 104 106 108 108 108 109 109 109 110 110 110 110 110 109 109 107 106 104 103 102 102 103 103 102 101 99
348 348 348 346 346 346 347 347 346 346 346 346 345 344 344 344 343 341 336 329 324 321 321 322 321 319 314 314 312 293 256 269 302 329 349 63 113 122 127 125 124 123 119 113 112 112 113 115 112 99 80 76 78 80 81 83 89 97 105 106 107 107 108 107 107 107 107 108 108 108 108 109 108 108 108 107 106 104 103 102 101 100 98 98 98 96
349 349 348 347 347 347 348 348 348 347 346 344 343 341 341 340 339 337 334 330 325 320 318 320 321 320 318 316 309 289 279 277 304 333 19 40 82 109 121 126 128 127 123 115 110 108 106 110 112 109 95 79 69 66 66 69 75 84 95 102 105 107 107 106 106 106 106 106 106 106 107 108 108 108 108 108 108 107 106 105 105 104 104 102 101 100
351 351 350 349 349 349 349 350 349 348 346 343 341 340 339 337 335 333 332 329 325 320 315 312 308 306 307 305 299 289 285 283 304 329 45 36 41 79 116 130 134 133 130 126 122 118 113 113 113 113 110 96 78 65 60 64 69 73 77 86 93 98 100 101 103 104 104 103 103 103 105 106 107 108 109 109 109 109 109 108 108 109 109 109 109 109
354 353 352 351 350 350 350 349 349 347 345 342 340 338 337 335 333 330 329 327 325 322 318 312 303 292 278 270 268 270 276 280 291 309 63 53 35 37 103 133 139 137 133 131 128 125 121 117 114 111 110 106 96 81 66 68 72 74 72 74 79 83 87 90 95 99 101 101 100 100 101 102 103 105 107 107 107 107 107 107 108 109 109 110 111 112
356 355 353 352 351 350 349 348 347 346 344 341 339 338 336 334 331 329 326 327 326 325 321 317 312 308 308 282 261 256 262 266 266 260 91 78 60 41 81 130 138 137 137 134 132 128 124 121 117 112 107 106 107 106 100 88 81 77 74 73 74 77 79 81 86 91 96 98 99 100 100 101 102 103 104 105 104 103 103 104 104 104 105 104 104 105
358 356 353 353 352 350 348 347 345 344 342 339 337 336 334 332 330 329 327 329 330 329 325 322 318 318 325 320 307 287 273 270 260 109 84 76 65 49 74 119 125 129 135 136 135 133 130 126 124 120 112 106 105 109 113 105 94 86 81 75 73 73 74 76 78 82 88 92 93 94 93 94 96 99 100 100 99 98 98 98 99 100 100 99 97 96
357 355 353 353 352 350 348 346 343 340 338 337 336 335 333 332 331 331 331 333 334 334 330 324 319 320 327 335 347 358 1 358 37 66 72 67 57 40 38 86 101 109 118 131 135 135 131 128 127 125 123 117 111 107 104 102 100 98 94 83 73 68 68 71 74 77 81 86 87 87 85 86 88 90 92 92 94 95 98 99 101 101 101 99 94 91
355 354 352 351 350 348 346 343 340 337 336 335 336 337 338 338 338 338 339 341 342 340 333 326 322 325 339 1 16 23 24 26 39 54 66 63 55 40 29 54 81 104 114 123 128 128 125 121 120 121 123 123 121 117 111 106 105 104 103 93 82 72 68 71 73 75 78 82 85 87 86 84 84 85 84 84 86 91 96 98 98 98 98 100 98 93
354 352 351 348 346 345 344 341 338 338 338 338 341 344 347 346 346 345 345 347 348 347 342 337 336 343 3 23 30 31 30 32 39 49 62 62 56 45 31 38 52 80 105 109 112 114 117 118 118 118 117 118 116 115 113 110 105 101 97 96 96 93 84 80 80 82 82 82 84 86 86 84 82 80 79 78 78 79 84 88 87 84 80 83 91 98
352 351 348 345 343 342 342 340 340 342 344 345 348 351 353 351 350 349 348 350 350 350 347 345 347 358 19 31 35 35 33 34 39 47 57 60 58 51 38 32 30 41 85 101 102 103 107 112 116 118 121 119 115 110 106 102 98 96 95 101 103 100 89 82 82 86 88 85 84 83 83 81 79 77 77 76 74 72 71 75 77 77 74 69 71 79
350 347 344 341 340 339 340 342 345 347 350 352 355 356 355 353 351 351 351 352 352 350 347 344 347 2 28 38 40 38 36 36 40 45 51 56 58 55 46 34 26 24 54 99 104 100 96 96 101 109 116 116 113 108 106 101 98 97 100 107 109 105 95 86 82 83 83 82 80 79 78 78 76 74 72 70 67 63 62 65 67 70 72 73 71 67
345 343 342 342 341 343 346 350 351 352 354 356 357 357 355 353 353 354 355 355 355 354 352 345 346 6 36 44 46 44 42 41 42 45 48 52 56 58 55 42 30 21 25 75 103 108 102 94 95 101 110 111 110 109 107 107 105 102 98 96 96 97 100 103 98 91 84 81 79 78 80 81 80 76 69 65 61 58 58 61 63 66 69 75 78 80
345 345 346 346 348 350 353 354 353 354 356 359 360 358 355 354 356 359 0 359 360 0 359 350 353 12 36 41 45 48 49 48 47 47 48 50 55 59 61 54 43 31 27 42 70 96 107 105 105 105 106 106 107 109 112 112 111 107 99 91 88 87 89 94 96 95 93 90 87 86 87 89 87 81 75 68 63 59 60 64 69 72 74 78 84 89
351 350 350 351 352 353 354 353 353 354 358 1 2 0 357 356 358 1 4 4 5 5 3 3 11 26 36 36 40 46 52 53 53 52 51 51 52 56 61 60 56 49 44 45 49 60 77 95 106 111 110 105 102 102 107 111 111 108 104 100 98 95 92 91 91 94 97 98 98 98 98 95 91 87 83 77 71 64 59 62 69 75 81 85 90 94
355 353 352 352 353 353 353 353 353 356 360 2 2 1 359 358 360 4 7 8 9 10 9 13 22 31 36 35 37 43 51 55 57 57 57 57 58 61 64 66 64 61 59 58 57 56 57 62 75 95 110 110 107 103 99 102 105 107 110 108 106 102 98 95 94 96 99 102 106 108 108 101 96 93 92 88 82 73 62 59 60 66 75 85 93 98
356 355 353 353 353 353 353 353 355 356 360 1 1 1 1 1 4 7 9 9 12 14 16 19 25 30 34 34 35 39 47 53 57 59 60 61 64 67 71 73 73 71 68 66 65 63 60 54 51 54 73 98 108 110 108 103 102 103 107 107 105 103 99 97 97 97 98 101 106 110 112 108 108 107 106 100 93 84 74 63 54 50 52 70 87 97
358 357 354 354 355 356 354 355 356 357 359 0 1 1 1 3 7 9 10 12 15 18 22 23 26 29 32 31 32 35 41 47 50 52 53 57 64 73 80 83 85 84 81 75 72 69 66 60 53 47 42 57 84 103 109 106 103 100 99 100 101 101 100 98 97 96 96 97 98 99 100 103 109 112 113 108 103 97 90 77 62 48 37 49 71 90
0 360 356 356 357 357 355 355 356 358 358 -0 1 1 1 4 6 9 11 14 19 22 25 25 27 30 32 30 29 31 36 40 42 42 38 35 44 65 84 92 96 96 93 87 82 78 74 66 57 49 42 42 50 74 102 105 104 100 96 96 98 101 102 100 97 95 94 94 94 94 94 95 98 103 107 109 108 106 101 92 79 59 35 39 57 76
2 1 359 358 358 358 356 356 358 359 358 360 1 2 4 6 8 10 12 17 21 24 25 26 29 32 33 31 30 31 33 37 39 38 31 20 17 30 62 90 103 105 103 99 95 90 86 80 68 53 41 35 34 40 78 99 104 104 99 98 98 100 101 100 97 94 93 93 93 94 95 95 95 99 107 111 112 112 110 106 98 81 47 42 53 66